DELTA 1 DEB, 21754

Orbit data source: Space-Track

DELTA 1 DEB, 21754 is space debris in SSO originally from a launch on Thu, 12 Jun 1975 UTC launched from the Air Force Western Test Range (AFWTR). Debris objects in space refer to the collection of defunct objects orbiting the Earth. Examples of debris include non-operational satellites, rocket bodies, and fragments generated from explosions, collisions, or faulty payload assembly.

Loading next visibility...
Identifier
21754, 1975-052JQ
Orbit
SSO
Country
Flag of USUS
Related business
Manufacturer
Unknown
Mission
Spacecraft
Bus & Motor
Unknown
Mass
Unknown
Launch date (UTC)
1975-06-12 (51 years ago)
Launch vehicle
Unknown
Launch site
Air Force Western Test Range (AFWTR)
Object type
Payload
Rocket body
Debris
Shape & HBR
Unknown shape, 0.1 m
Radar Cross Section
Small (<0.1 m²)

Expand to show TLE details & history
Last TLE update: 1 day ago

TLE from 1 day ago
0 DELTA 1 DEB
1 21754U 75052JQ  26124.03637512  .00000172  00000-0  41973-3 0  9997
2 21754 100.0515  48.8345 0076866  67.0070 305.9226 13.35308986691401
Epoch: 2026-05-04T00:52Z
TLE epoch observation values (Epoch: 2026-05-04T00:52:22.810Z)
Latitude
11.98198°
Longitude
171.66331°
Altitude
1,095.246 km
Speed
7.322 km/s
True Right ascension
03h 06m 45s
True Declination
11° 54' 56"
Sunlit
Object was in daylight at epoch
Visualization orbit readout
Latitude
Unknown
Longitude
Unknown
Altitude
Unknown
Speed
Unknown
Apparent Right ascension
Unknown
Apparent Declination
Unknown
Sunlit
N/A
Visualization observer readout
Local Sidereal Time
10:37:27
Azimuth
Unknown
Elevation
Unknown
Doppler factor
Unknown
Orbital elements
Apogee altitude
1,181.811 km
Perigee altitude
1,066.477 km
Semi-major axis
7,502.281 km
Eccentricity
0.00769
Inclination
100.0515°
RAAN
48.8345°
Arg. of periapsis
67.007°
True anomaly
305.20528°
Mean anomaly
305.9226°
Eccentric anomaly
305.56434°
Mean motion
3.34005 °/min
Orbital period
107.78 mins
BSTAR
0.00041973
Loading maneuver chart data...
Computing Atmospheric mass density...
Loading historical data...
Loading historical data...
Loading historical data...
Loading historical data...
Loading historical data...
Loading historical data...
Loading historical data...

Documentation

Showing up to 5 results
|